Starlink 5806

operational
NORAD ID: 56007 Int'l Des: 2023-042 Owner: SPXS Country: US Constellation: starlink
LEOCIRCULAR

Starlink 5806について

説明を読み込み中...

リアルタイム位置

3D地球を読み込み中...

次回通過

高度履歴

Altitude vs Time

uPlot chart will show altitude changes over time

軌道要素

1 56007U 23042X 25352.44863843 -.00000609 00000-0 -30028-4 0 9990
2 56007 43.0028 137.2043 0001434 269.8660 90.2018 15.02536419150693
Epoch: Dec 18, 2025 • Age: 34 hours

現在のステータス

高度 561.4 km
速度 7.59 km/s
衛星直下点 34.91°N, 139.58°W
打ち上げ日 Mar 24, 2023
運用期間 2.7 years
タイプ internet

技術仕様

分類 Payload
質量 305.00 kg
乾燥質量 290.00 kg
総質量 305.00 kg
長さ 0.20 m
直径 2.80 m
スパン 9.00 m
形状 Box + pan
製造者 SPXS
バスタイプ Starlink
フェーズステータス In Orbit
所有者/国 SPXS/US

大規模コンステレーション

Loading constellations...